TimePDT,TemperatureF,Dew PointF,Humidity,Sea Level PressureIn,VisibilityMPH,Wind Direction,Wind SpeedMPH,Gust SpeedMPH,PrecipitationIn,Events,Conditions,WindDirDegrees,DateUTC
12:15 AM,51.8,48.2,88,30.22,10.0,NE,5.8,-,0.00,,Mostly Cloudy,50,2012-10-18 07:15:00
12:35 AM,51.8,48.2,88,30.22,10.0,NE,3.5,-,0.00,,Mostly Cloudy,50,2012-10-18 07:35:00
12:55 AM,51.8,48.2,88,30.22,10.0,Calm,Calm,-,0.00,,Overcast,0,2012-10-18 07:55:00
1:15 AM,51.8,48.2,88,30.23,10.0,Calm,Calm,-,0.00,,Overcast,0,2012-10-18 08:15:00
1:35 AM,51.8,48.2,88,30.22,10.0,East,3.5,-,0.00,,Overcast,80,2012-10-18 08:35:00
1:55 AM,50.0,48.2,94,30.22,10.0,East,4.6,-,0.00,,Overcast,80,2012-10-18 08:55:00
2:15 AM,50.0,48.2,94,30.21,10.0,East,4.6,-,0.00,,Overcast,80,2012-10-18 09:15:00
2:35 AM,51.8,48.2,88,30.21,10.0,Calm,Calm,-,0.00,,Overcast,0,2012-10-18 09:35:00
2:55 AM,51.8,48.2,88,30.22,10.0,Calm,Calm,-,0.00,,Overcast,0,2012-10-18 09:55:00
3:15 AM,50.0,48.2,94,30.21,10.0,Calm,Calm,-,0.00,,Overcast,0,2012-10-18 10:15:00
3:35 AM,51.8,48.2,88,30.21,10.0,Calm,Calm,-,0.00,,Overcast,0,2012-10-18 10:35:00
3:55 AM,50.0,48.2,94,30.19,10.0,East,4.6,-,0.00,,Overcast,100,2012-10-18 10:55:00
4:15 AM,48.2,46.4,93,30.18,10.0,East,3.5,-,0.00,,Scattered Clouds,100,2012-10-18 11:15:00
4:35 AM,48.2,46.4,93,30.18,10.0,Calm,Calm,-,0.00,,Clear,0,2012-10-18 11:35:00
4:55 AM,48.2,46.4,93,30.17,10.0,Calm,Calm,-,0.00,,Clear,0,2012-10-18 11:55:00
5:15 AM,48.2,46.4,93,30.17,10.0,Calm,Calm,-,0.00,,Clear,0,2012-10-18 12:15:00
5:55 AM,48.2,46.4,93,30.16,10.0,Calm,Calm,-,0.00,,Mostly Cloudy,0,2012-10-18 12:55:00
6:15 AM,48.2,46.4,93,30.14,10.0,East,4.6,-,0.00,,Overcast,80,2012-10-18 13:15:00
6:35 AM,48.2,46.4,93,30.13,10.0,ENE,3.5,-,0.00,,Mostly Cloudy,70,2012-10-18 13:35:00
6:55 AM,48.2,46.4,93,30.13,10.0,Calm,Calm,-,0.00,,Mostly Cloudy,0,2012-10-18 13:55:00
7:15 AM,46.4,46.4,100,30.12,10.0,Calm,Calm,-,0.00,,Partly Cloudy,0,2012-10-18 14:15:00
7:35 AM,46.4,46.4,100,30.12,10.0,Calm,Calm,-,0.00,,Clear,0,2012-10-18 14:35:00
7:55 AM,46.4,46.4,100,30.10,10.0,Calm,Calm,-,0.00,,Clear,0,2012-10-18 14:55:00
8:15 AM,46.4,46.4,100,30.10,10.0,Calm,Calm,-,0.00,,Clear,0,2012-10-18 15:15:00
8:35 AM,46.4,46.4,100,30.09,10.0,Calm,Calm,-,0.00,,Clear,0,2012-10-18 15:35:00
8:55 AM,48.2,48.2,100,30.09,10.0,Calm,Calm,-,0.00,,Clear,0,2012-10-18 15:55:00
9:15 AM,51.8,48.2,88,30.08,10.0,East,3.5,-,0.00,,Clear,90,2012-10-18 16:15:00
9:35 AM,53.6,46.4,77,30.07,10.0,East,5.8,-,0.00,,Scattered Clouds,90,2012-10-18 16:35:00
9:55 AM,53.6,48.2,82,30.06,10.0,SSE,3.5,-,0.00,,Scattered Clouds,150,2012-10-18 16:55:00
10:15 AM,51.8,48.2,88,30.06,10.0,SSW,3.5,-,0.00,,Partly Cloudy,200,2012-10-18 17:15:00
10:35 AM,51.8,48.2,88,30.05,10.0,Calm,Calm,-,0.00,,Scattered Clouds,0,2012-10-18 17:35:00
10:55 AM,53.6,46.4,77,30.04,10.0,Calm,Calm,-,0.00,,Mostly Cloudy,0,2012-10-18 17:55:00
11:15 AM,53.6,46.4,77,30.02,10.0,East,3.5,-,0.00,,Mostly Cloudy,90,2012-10-18 18:15:00
11:35 AM,53.6,46.4,77,30.01,10.0,SE,4.6,-,0.00,,Mostly Cloudy,140,2012-10-18 18:35:00
11:55 AM,55.4,46.4,72,29.99,10.0,SE,4.6,-,0.00,,Partly Cloudy,130,2012-10-18 18:55:00
12:15 PM,55.4,48.2,77,29.98,10.0,SSE,3.5,-,0.00,,Mostly Cloudy,150,2012-10-18 19:15:00
12:35 PM,55.4,48.2,77,29.97,10.0,Calm,Calm,-,0.00,,Overcast,0,2012-10-18 19:35:00
12:55 PM,55.4,48.2,77,29.96,10.0,Calm,Calm,-,0.00,,Overcast,0,2012-10-18 19:55:00
1:15 PM,55.4,50.0,82,29.96,10.0,WNW,4.6,-,0.00,,Overcast,300,2012-10-18 20:15:00
1:35 PM,55.4,48.2,77,29.96,9.0,WNW,5.8,-,0.00,,Overcast,300,2012-10-18 20:35:00
1:55 PM,53.6,50.0,88,29.95,10.0,WNW,10.4,-,0.00,,Mostly Cloudy,300,2012-10-18 20:55:00
2:15 PM,53.6,51.8,94,29.95,8.0,NW,8.1,-,0.00,,Overcast,320,2012-10-18 21:15:00
2:35 PM,53.6,51.8,94,29.93,5.0,NW,3.5,-,0.00,,Mostly Cloudy,320,2012-10-18 21:35:00
3:15 PM,53.6,51.8,94,29.91,6.0,ENE,5.8,-,0.00,,Mostly Cloudy,60,2012-10-18 22:15:00
3:35 PM,53.6,51.8,94,29.89,8.0,Calm,Calm,-,0.00,,Mostly Cloudy,0,2012-10-18 22:35:00
3:55 PM,51.8,51.8,100,29.89,10.0,Calm,Calm,-,0.00,,Mostly Cloudy,0,2012-10-18 22:55:00
4:15 PM,51.8,51.8,100,29.90,10.0,Calm,Calm,-,0.00,,Overcast,0,2012-10-18 23:15:00
4:35 PM,51.8,51.8,100,29.86,5.0,East,5.8,-,0.01,,Mostly Cloudy,100,2012-10-18 23:35:00
4:55 PM,51.8,51.8,100,29.84,7.0,ESE,8.1,-,0.03,,Overcast,120,2012-10-18 23:55:00
5:15 PM,51.8,51.8,100,29.83,5.0,ESE,4.6,-,0.01,,Overcast,110,2012-10-19 00:15:00
5:55 PM,51.8,51.8,100,29.81,9.0,Calm,Calm,-,0.01,,Mostly Cloudy,0,2012-10-19 00:55:00
6:35 PM,51.8,51.8,100,29.81,5.0,Calm,Calm,-,0.05,,Overcast,0,2012-10-19 01:35:00
6:55 PM,51.8,51.8,100,29.80,5.0,WNW,4.6,-,0.09,,Overcast,290,2012-10-19 01:55:00
7:15 PM,51.8,51.8,100,29.81,4.0,NW,4.6,-,0.02,,Overcast,310,2012-10-19 02:15:00
7:35 PM,51.8,51.8,100,29.80,4.0,ESE,6.9,-,0.08,,Overcast,120,2012-10-19 02:35:00
7:55 PM,53.6,53.6,100,29.84,4.0,West,10.4,-,0.13,,Overcast,270,2012-10-19 02:55:00
8:15 PM,53.6,53.6,100,29.83,5.0,SSE,6.9,19.6,0.04,,Overcast,160,2012-10-19 03:15:00
8:35 PM,53.6,53.6,100,29.81,5.0,SE,11.5,18.4,0.06,,Overcast,140,2012-10-19 03:35:00
8:55 PM,53.6,53.6,100,29.81,8.0,SE,12.7,20.7,0.08,,Overcast,140,2012-10-19 03:55:00
11:35 PM,55.4,55.4,100,29.78,10.0,SSE,12.7,-,0.00,,Overcast,150,2012-10-19 06:35:00
11:55 PM,55.4,55.4,100,29.78,10.0,SE,11.5,16.1,0.00,,Overcast,140,2012-10-19 06:55:00